Regional Weather Roundup
Issued by NWS

Home | Current Version | Previous Version | Graphics & Text | Print | Product List | Glossary Off
Versions: 1 2 3 4 5 6 7 8 9 10 11 12 13 14 15 16 17 18 19 20 21 22 23 24 25 26 27 28 29 30 31 32 33 34 35 36 37 38 39 40 41 42 43 44 45 46 47 48 49 50

000
ASUS43 KMPX 250410
RWRMN
WEATHER ROUNDUP FOR MINNESOTA
NATIONAL WEATHER SERVICE TWIN CITIES/CHANHASSEN MN
1100 PM CDT TUE APR 24 2018


NOTE: "FAIR" INDICATES FEW OR NO CLOUDS BELOW 12,000 FEET WITH NO
SIGNIFICANT WEATHER AND/OR OBSTRUCTIONS TO VISIBILITY. N/A MEANS
CURRENT SKY AND/OR WEATHER CONDITIONS ARE NOT AVAILABLE.

MNZ060>063-068>070-250500-
   Twin Cities Metro

CITY           SKY/WX    TMP DP  RH WIND       PRES   REMARKS
TWIN CITIES    FAIR      49  26  41 N9        30.22S
ST PAUL        FAIR      47  26  44 N9        30.23R
CRYSTAL        FAIR      47  24  40 N8        30.22S
BLAINE         FAIR      46  27  46 N9        30.22S
LAKEVILLE      FAIR      37  30  75 NW5       30.22S
EDEN PRAIRIE   FAIR      47  25  42 N7        30.22R
SOUTH ST PAUL  FAIR      49  25  39 N6        30.22R
LAKE ELMO      FAIR      45  30  57 N6        30.23R
$$
MNZ001>005-007-008-013>017-022>024-027-028-250500-
   Northwest Minnesota

CITY           SKY/WX    TMP DP  RH WIND       PRES   REMARKS
BEMIDJI        FAIR      29  19  67 N3        30.31F
HALLOCK        FAIR      36  21  55 SE8       30.31F
ROSEAU         FAIR      36  28  75 S5        30.31F
WARROAD        FAIR      32  28  86 CALM      30.31F
THIEF RVR FALL FAIR      37  27  67 CALM      30.33F
CROOKSTON      FAIR      39  28  65 CALM      30.34S
FOSSTON        FAIR      30  23  74 CALM      30.33F
DETROIT LAKES  FAIR      37  28  70 N7        30.33S
MOORHEAD       FAIR      37  28  70 CALM      30.35F
PARK RAPIDS    FAIR      39  23  52 N6        30.31R
MAHNOMEN       FAIR      35  27  70 CALM      30.32F
$$
MNZ006-009>011-018-025>026-250500-
   North Central Minnesota

CITY           SKY/WX    TMP DP  RH WIND       PRES   REMARKS
BAUDETTE       FAIR      30  25  81 W6        30.30F WCI  24
FLAG ISLAND    FAIR      32  21  64 SW6       30.29F WCI  26
INTL FALLS     FAIR      27  22  81 CALM      30.30S
WASKISH        FAIR      27  21  80 CALM      30.32S
BIG FORK       FAIR      28  21  74 CALM      30.30F
LONGVILLE      FAIR      34  25  69 NW3       30.30S
GRAND RAPIDS   FAIR      34  22  61 CALM      30.32R
CRANE LAKE     FAIR      25  21  86 CALM      30.32R
ORR            FAIR      28  19  69 CALM      30.27S
COOK           FAIR      28  21  74 CALM      30.29F
WALKER         FAIR      35  22  58 N6        30.32S WCI  30
$$
MNZ012-019>021-037-250500-
   Northeast Minnesota

CITY           SKY/WX    TMP DP  RH WIND       PRES   REMARKS
DULUTH         FAIR      37  23  56 N10       30.26R
ELY            FAIR      30  19  64 CALM      30.28S
HIBBING        FAIR      33  21  61 N5        30.28S WCI  29
EVELETH        FAIR      34  21  60 N5        30.29F WCI  30
DULUTH HARBOR  FAIR      39  28  65 N12       30.30R
TWO HARBORS    FAIR      37  25  60 CALM      30.25R
SILVER BAY     FAIR      36  23  60 CALM      30.25R
GRAND MARAIS     N/A     37  25  61 CALM      30.27R
G MARAIS ARPRT FAIR      30  19  64 N16       30.21F WCI  19
$$
MNZ029>031-032-039>041-046>048-054>057-064-250500-
   West Central Minnesota

CITY           SKY/WX    TMP DP  RH WIND       PRES   REMARKS
FERGUS FALLS   FAIR      37  28  70 N6        30.31S
WHEATON        CLEAR     39  30  70 NW8       30.35S
MORRIS         CLEAR     37  32  81 NW7       30.30S
ALEXANDRIA     FAIR      42  28  57 N12       30.30R
ELBOW LAKE     FAIR      38  30  74 N6        30.31F
WADENA         FAIR      37  25  60 N5        30.31R
GLENWOOD       FAIR      39  28  65 N9        30.28S
APPLETON       CLEAR     41  32  70 N10       30.30R
BENSON         CLEAR     34  28  80 N7        30.31S WCI  28
ORTONVILLE     CLEAR     39  30  70 N10       30.32S
WILLMAR        FAIR      37  30  75 NW8       30.30S
$$
MNZ033>034-036-042>043-049>051-058-059-250500-
   Central Minnesota

CITY           SKY/WX    TMP DP  RH WIND       PRES   REMARKS
ST CLOUD       FAIR      43  29  57 N13       30.25R
SAUK CENTRE    FAIR      39  28  64 N9        30.28R
PAYNESVILLE    FAIR      41  32  70 N6        30.28R
AITKIN         FAIR      34  25  69 NW6       30.28R WCI  29
PINE RIVER     FAIR      36  23  60 NW6       30.33S
BRAINERD       FAIR      38  23  55 N8        30.29R
STAPLES        FAIR      37  21  52 N8        30.31R
LONG PRAIRIE   FAIR      41  28  60 NW14      30.29S
LITTLE FALLS   FAIR      41  19  42 N8        30.29R
LITCHFIELD     FAIR      41  34  75 NW3       30.27R
BUFFALO        FAIR      44  26  48 NW6       30.25R
MAPLE LAKE     FAIR      43  31  62 N7        30.25S
HUTCHINSON     FAIR      41  34  77 NW9       30.26S
$$
MNZ037-044-045-052-053-250500-
   East Central Minnesota

CITY           SKY/WX    TMP DP  RH WIND       PRES   REMARKS
PRINCETON      FAIR      45  27  49 N9        30.26R
MORA           FAIR      41  27  56 N5        30.27R
CAMBRIDGE      FAIR      46  30  53 NW7       30.25R
RUSH CITY      FAIR      42  28  56 N8        30.24R
MOOSE LAKE     FAIR      37  25  60 N6        30.26R
HINCKLEY       FAIR      43  28  56 N9        30.26R
CLOQUET        FAIR      37  21  52 N7        30.27R
MCGREGOR       FAIR      37  27  65 N10       30.29R
$$
MNZ071>073-080-081-089-090-097-098-250500-
   Southwest Minnesota

CITY           SKY/WX    TMP DP  RH WIND       PRES   REMARKS
MONTEVIDEO     CLEAR     39  34  81 N12       30.30R
GRANITE FALLS  CLEAR     44  36  72 NW9       30.31R
CANBY          CLEAR     39  33  80 W7        30.32S
MARSHALL       CLEAR     40  34  79 N12       30.30R
REDWOOD FALLS  CLEAR     43  33  68 NW9       30.26S
OLIVIA         CLEAR     39  32  75 NW7       30.26S
PIPESTONE      CLEAR    N/A N/A N/A N8        30.28S
WINDOM         CLEAR     39  25  56 NW13      30.26S
WORTHINGTON    CLOUDY    40  35  83 N15       30.26S
JACKSON        CLOUDY    41  36  81 NW10      30.25S
TRACY          CLEAR     42  36  80 NW9       30.28S
SLAYTON        CLEAR     39  33  79 N14       30.28S
$$
MNZ065>067-074>077-082>085-091>093-250500-
   South Central Minnesota

CITY           SKY/WX    TMP DP  RH WIND       PRES   REMARKS
MANKATO        FAIR      44  35  70 NW5       30.24R
NEW ULM        CLEAR     43  34  70 NW13      30.24S
ST JAMES       CLEAR     43  37  81 NW8       30.25F
FAIRMONT       CLOUDY    44  39  82 NW9       30.24S
GLENCOE        FAIR      45  35  67 NW5       30.24R
OWATONNA       FAIR      41  34  75 NW3       30.22R
WASECA         FAIR      39  36  87 NW6       30.23S
ALBERT LEA     CLOUDY    46  37  71 N8        30.21R
$$
MNZ078>079-086>088-094>096-250500-
   Southeast Minnesota

CITY           SKY/WX    TMP DP  RH WIND       PRES   REMARKS
ROCHESTER      FAIR      44  36  73 N8        30.20R
RED WING       FAIR      39  30  70 NW5       30.20S
STANTON        FAIR      45  33  63 N8        30.20S
DODGE CENTER   FAIR      43  36  75 N6        30.21R
WINONA         FAIR      48  36  61 N3        30.17S
AUSTIN         FAIR      45  39  81 N6        30.20R
PRESTON        FAIR      46  36  66 N10       30.19R
$$
ABBREVIATIONS USED IN REMARKS
   TC - TEMPERATURES IN CELSIUS
  WCI - WIND CHILL INDEX
   HX - HEAT INDEX
  VSB - VISIBILITY
$$




USA.gov is the U.S. government's official web portal to all federal, state and local government web resources and services.